Back to catalog

COSMOS 1285 DEB

LostHEO
NORAD 33527·DEBRIS·🇷🇺 Russia

Launched Aug 4, 1981 from Plesetsk Cosmodrome

Loading…

Next Passes (next 24 hours)

TLE

StaleSource: Space-Track

Epoch: Jan 5, 2011, 09:23 UTC

1 33527U 81071AC  11005.39102111 -.00000246  00000-0  10000-3 0  9999
2 33527  65.9418  86.6311 6126918 139.1326 287.4436  1.97751754 54940

Track COSMOS 1285 DEB in real time with AllMySat

Download on the App Store